Flag for Switzerland Weather past 2 weeks in Bern, Bern, Switzerland

Now
59 °F

Sprinkles. Partly cloudy.


Feels Like: 58 °F
Forecast: 55 / 69 °F
Wind: 6 mph from East

Location: Bern / Belp

Current Time: Sep 2, 2015 at 12:50:10 AM

Latest Report: Sep 1, 2015 at 11:20 PM


Visibility: N/A

Pressure: 30.09 "Hg (28.25 "Hg at 533m altitude)

Humidity: 100%

Dew point: 59 °F

Location of BernLocation

Historic Weather in Bern — Graph

°F

Bern temperature yesterday

Maximum temperature yesterday: 73 °F (at 3:50 PM)
Minimum temperature yesterday: 59 °F (at 9:20 PM)
Average temperature yesterday: 66 °F

Past Weeks' High & Low Weather Summary

 TemperatureHumidityPressure
High90 °F (Aug 29, 6:20 PM)100% (Aug 18, 1:20 AM)30.27 "Hg (Aug 18, 1:20 AM)
Low48 °F (Aug 20, 3:20 AM)31% (Aug 31, 4:20 PM)29.74 "Hg (Aug 24, 4:20 AM)
Average65 °F80%30.06 "Hg
* Reported Aug 17 11:20 PM — Sep 1 11:20 PM, Bern, Weather by CustomWeather, © 2015

Note: Actual official high and low records may vary slightly from our data, if they occured in-between our weather recording intervals... More about our weather records

Advertising

Bern weather history for previous 24 hours

 ConditionsComfort  
Time TempWeatherWind HumidityBarometerVisibility
11:20 PM
Tue, Sep 1
59 °FSprinkles. Partly cloudy.6 mph100%30.09 "HgN/A
10:50 PM59 °FMostly cloudy.3 mph100%30.09 "HgN/A
10:20 PM59 °FPartly cloudy.2 mph100%30.09 "HgN/A
9:50 PM59 °FPartly cloudy.5 mph100%30.09 "HgN/A
9:20 PM59 °FPartly cloudy.3 mph100%30.09 "HgN/A
8:50 PM61 °FSprinkles. Broken clouds.5 mph94%30.07 "HgN/A
8:20 PM63 °FRain showers. Broken clouds.5 mph88%30.07 "HgN/A
7:50 PM64 °FBroken clouds.3 mph83%30.07 "HgN/A
7:20 PM64 °FBroken clouds.8 mph83%30.04 "HgN/A
6:50 PM64 °FSprinkles. Broken clouds.9 mph83%30.04 "HgN/A
6:20 PM64 °FBroken clouds.7 mph83%30.04 "HgN/A
5:50 PM64 °FDrizzle. Broken clouds.9 mph88%30.04 "HgN/A
5:20 PM63 °FLight rain. Broken clouds.16 mph94%30.01 "Hg3 mi
4:50 PM70 °FBroken clouds.16 mph69%29.98 "HgN/A
4:20 PM73 °FBroken clouds.13 mph61%29.98 "HgN/A
3:50 PM73 °FBroken clouds.7 mph65%29.98 "HgN/A
3:20 PM70 °FSprinkles. Broken clouds.9 mph73%29.98 "HgN/A
2:50 PM70 °FScattered clouds.9 mph78%29.98 "HgN/A
2:20 PM70 °FLight rain. Broken clouds.10 mph69%29.98 "HgN/A
1:50 PM72 °FBroken clouds.15 mph65%29.95 "HgN/A
1:20 PM72 °FBroken clouds.16 mph65%29.95 "HgN/A
12:50 PM72 °FBroken clouds.17 mph65%29.95 "HgN/A
12:20 PM72 °FPartly sunny.13 mph65%29.95 "HgN/A
11:50 AM72 °FBroken clouds.15 mph65%29.95 "HgN/A
11:20 AM72 °FPartly sunny.12 mph65%29.92 "HgN/A
10:50 AM72 °FPartly sunny.6 mph73%29.92 "HgN/A
10:20 AM70 °FScattered clouds.3 mph83%29.92 "HgN/A
9:50 AM66 °FSprinkles. Broken clouds.3 mph88%29.92 "HgN/A
9:20 AM66 °FBroken clouds.3 mph94%29.89 "HgN/A
8:50 AM66 °FScattered clouds.3 mph88%29.89 "HgN/A
8:20 AM66 °FPartly sunny.2 mph83%29.89 "HgN/A
7:50 AM64 °FPartly sunny.7 mph88%29.89 "HgN/A
7:20 AM63 °FPassing clouds.6 mph94%29.89 "HgN/A
6:50 AM63 °FPassing clouds.3 mph88%29.89 "HgN/A
5:20 AM64 °FPassing clouds.1 mph88%29.92 "HgN/A
4:50 AM64 °FPassing clouds.1 mph88%29.92 "HgN/A
4:20 AM64 °FPassing clouds.1 mph88%29.92 "HgN/A
3:50 AM64 °FPartly cloudy.1 mph88%29.92 "HgN/A
3:20 AM64 °FPassing clouds.2 mph88%29.95 "HgN/A
2:50 AM63 °FPassing clouds.1 mph94%29.95 "HgN/A
2:20 AM63 °FMild.1 mph88%29.95 "HgN/A
1:50 AM64 °FPartly cloudy.2 mph88%29.95 "HgN/A
1:20 AM64 °FOvercast.1 mph88%29.98 "HgN/A
12:50 AM64 °FPassing clouds.1 mph83%29.95 "HgN/A
12:20 AM66 °FPassing clouds.2 mph78%29.95 "HgN/A
Weather by CustomWeather, © 2015

See weather overviewHow to use our weather pages